Zurück zum Katalog

METEOR 2-11 DEB

AktivPO
NORAD 60006·DEBRIS·🇷🇺 Russia

Gestartet Jul 5, 1984 von Plesetsk Cosmodrome

Loading…

Nächste Überflüge (nächste 24 Stunden)

TLE

AlterndSource: Space-Track

Epoche: Sep 5, 2026, 10:47 UTC

1 60006U 84072AB  26248.44999367  .00000593  00000-0  39800-3 0  9996
2 60006  82.5572 302.7521 0018702  34.0213 326.2150 13.99200278441924

Verfolge METEOR 2-11 DEB in Echtzeit mit AllMySat

Download on the App Store